Location: Newark
(41.9364°N, 2.8061°E)
Time: 16:40:11
(UTC+00:00)

X-37B - Pass Details

Date: 10 August 2021
Orbit: 381 x 393 km, 45.0° (Epoch: 29 August)

Event Time Altitude Azimuth Distance (km) Brightness Sun altitude
Exits shadow 02:50:36 38° 323° (NW) 598 1.5 -19.6°
Maximum altitude 02:51:20 48° 6° (N) 510 1.4 -19.5°
Drops below altitude 10° 02:54:24 10° 83° (E) 1,396 4.1 -19.1°
Sets 02:56:30 0° 89° (E) 2,248 5.2 -18.8°
